JIAOTONG VDES

Satellite information

Favourite Embed

Satellite Type and Status

PAYLOADIN ORBIT

Key statistics

Satellite JIAOTONG VDES at a glance.

Uptime

1056

Days in orbit

Revolutions

≈ 14.5

Per day

Orbit

SSO

Sun Synchronous Orbit

Inclination

98.3

Latest

Satellite identification and parameters

Extended collection of information and parameters for JIAOTONG VDES.

Object identification

Identified? True

Debris? False

Object name: JIAOTONG VDES

International designator: 2022-164A

Object number (NORAD): 54588

Object ID (CCSDS): 54588

Country: PEOPLES REPUBLIC OF CHINA (PRC)

Current information (Y/N): Y

RCS size: LARGE

Orbital parameters

Period: 99.594 minutes

Inclination: 98.2611 deg

SMA: 7117.312 km

Apoapsis: 745.563 km

Periapsis: 732.791 km

RAAN: 321.4297 deg

Eccentricy: 0.00089731

Argument of periapsis: 320.0795 deg

Mean anomaly: 39.9736 deg

Mean motion: 14.45868357 rev/day

Mean motion (dot): 0.00000488 rev/day2

B* drag term: 0.00014939827 1/REarth

Two-line elements (TLE)

Creation date: Oct. 28, 2025, 2:18 a.m.

Reference frame: TEME

Reference center: EARTH

Epoch: Oct. 28, 2025, 12:01 a.m. UTC

TLE line 0: 0 JIAOTONG VDES

TLE line 1: 1 54588U 22164A 25301.00131138 .00000488 00000-0 14940-3 0 9994

TLE line 2: 2 54588 98.2611 321.4297 0008973 320.0795 39.9736 14.45868357152523

Live tracking on map

Real-time ground track for satellite JIAOTONG VDES.

In-orbit conjunctions

There are no conjunctions computed for JIAOTONG VDES, at the moment. Check back to stay up to date, as we update our databases every day.

Go to all conjunctions

Associated space launch

Test satellite for CASIC's own Xingyun Low Earth Orbit communication satellite constellation, with a VHF Data Exchange System payload for maritime traffic operation uses.

JIAOTONG VDES was lifted into orbit during the mission ‘Kuaizhou 11 | Xingyun VDES’, on board a Kuaizhou-11 space rocket.

The launch took place on Dec. 7, 2022, 1:15 a.m. from Launch Area 95A.

For more information about the launch, click the button.

Launch to space Kuaizhou 11 | Xingyun VDES
Kuaizhou 11 | Xingyun VDES

Agency: N/A

Status: Launch Successful

Launch date: Dec. 7, 2022, 1:15 a.m. UTC

Rocket: Kuaizhou-11

Launch pad: Launch Area 95A

Location: Jiuquan Satellite Launch Center, People's Republic of China

...

Latest news about this satellite

There are no fresh news available about this satellite. Check back as we update our databases every day.


Newsletter sign-up

Weekly statistics, charts and insights to help you stay on top of the space industry.